When you browse on this site, cookies collect data to enhance your experience and personalize the content and advertising you see.
Visit our Privacy Policy to learn more. By continuing to use the site, you agree to this use of cookies and data.
  • In Österreich
  • Länderverzeichnis
  • Für 7 Tage
  • Wassertemperatur
  • Wetterkarte
  • News
  • Widgets
  • user-avatar
    Anmelden

    Stündliche Wetter Atotonilco el Grande

    Heute, 17 November, Sonntag

    Zeit Temperatur Niederschläge Wind Luftdruck Luftfeuchtigkeit
    00:00 +10°C° 0 mm 0 m/S 592 mmHg 85%
    01:00 +10°C° 0 mm 0 m/S 592 mmHg 83%
    02:00 +10°C° 0 mm 0 m/S 592 mmHg 81%
    03:00 +10°C° 0 mm 0 m/S 592 mmHg 80%
    04:00 +11°C° 0 mm 1 m/S 592 mmHg 79%
    05:00 +11°C° 0 mm 1 m/S 592 mmHg 77%
    06:00 +13°C° 0 mm 1 m/S 593 mmHg 70%
    07:00 +14°C° 0 mm 0 m/S 594 mmHg 62%
    08:00 +16°C° 0 mm 0 m/S 595 mmHg 54%
    09:00 +20°C° 0 mm 1 m/S 596 mmHg 51%
    10:00 +20°C° 0 mm 2 m/S 596 mmHg 48%
    11:00 +21°C° 0 mm 2 m/S 596 mmHg 44%
    12:00 +21°C° 0 mm 3 m/S 595 mmHg 46%
    13:00 +21°C° 0 mm 3 m/S 595 mmHg 48%
    14:00 +21°C° 0 mm 4 m/S 594 mmHg 50%
    15:00 +19°C° 0 mm 3 m/S 594 mmHg 59%
    16:00 +18°C° 0 mm 2 m/S 593 mmHg 69%
    17:00 +16°C° 0 mm 2 m/S 593 mmHg 78%
    18:00 +15°C° 0 mm 2 m/S 593 mmHg 80%
    19:00 +15°C° 0 mm 1 m/S 594 mmHg 81%
    20:00 +14°C° 0 mm 1 m/S 594 mmHg 83%
    21:00 +14°C° 0 mm 1 m/S 594 mmHg 81%
    22:00 +14°C° 0 mm 1 m/S 593 mmHg 79%
    23:00 +12°C° 0 mm 0 m/S 593 mmHg 78%

    Morgen, 18 November, Montag

    Zeit Temperatur Niederschläge Wind Luftdruck Luftfeuchtigkeit
    00:00 +12°C° 0 mm 0 m/S 593 mmHg 77%
    01:00 +12°C° 0 mm 0 m/S 592 mmHg 77%
    02:00 +12°C° 0 mm 0 m/S 592 mmHg 77%
    03:00 +11°C° 0 mm 0 m/S 592 mmHg 77%
    04:00 +11°C° 0 mm 0 m/S 592 mmHg 78%
    05:00 +11°C° 0 mm 0 m/S 592 mmHg 79%
    06:00 +12°C° 0 mm 0 m/S 593 mmHg 71%
    07:00 +14°C° 0 mm 0 m/S 594 mmHg 64%
    08:00 +16°C° 0 mm 0 m/S 595 mmHg 56%
    09:00 +19°C° 0 mm 1 m/S 595 mmHg 53%
    10:00 +20°C° 0 mm 1 m/S 595 mmHg 50%
    11:00 +21°C° 0 mm 2 m/S 595 mmHg 47%
    12:00 +20°C° 0 mm 2 m/S 595 mmHg 50%
    13:00 +20°C° 0 mm 2 m/S 594 mmHg 53%
    14:00 +20°C° 0 mm 3 m/S 593 mmHg 57%
    15:00 +19°C° 0 mm 2 m/S 593 mmHg 66%
    16:00 +17°C° 0 mm 2 m/S 592 mmHg 76%
    17:00 +15°C° 0 mm 2 m/S 592 mmHg 86%
    18:00 +15°C° 0 mm 1 m/S 592 mmHg 88%
    19:00 +14°C° 0 mm 1 m/S 592 mmHg 90%
    20:00 +14°C° 0 mm 1 m/S 592 mmHg 91%
    21:00 +14°C° 0 mm 1 m/S 592 mmHg 88%
    22:00 +14°C° 0 mm 1 m/S 592 mmHg 85%
    23:00 +14°C° 0 mm 1 m/S 592 mmHg 82%

    übermorgen, 19 November, Dienstag

    Zeit Temperatur Niederschläge Wind Luftdruck Luftfeuchtigkeit
    00:00 +14°C° 0 mm 1 m/S 592 mmHg 82%
    01:00 +13°C° 0 mm 1 m/S 592 mmHg 82%
    02:00 +13°C° 0 mm 1 m/S 591 mmHg 82%
    03:00 +13°C° 0 mm 1 m/S 591 mmHg 83%
    04:00 +12°C° 0 mm 0 m/S 591 mmHg 83%
    05:00 +11°C° 0 mm 0 m/S 591 mmHg 84%
    06:00 +13°C° 0 mm 0 m/S 593 mmHg 78%
    07:00 +15°C° 0 mm 0 m/S 594 mmHg 71%
    08:00 +17°C° 0 mm 0 m/S 595 mmHg 65%
    09:00 +20°C° 0 mm 1 m/S 595 mmHg 60%
    10:00 +21°C° 0 mm 1 m/S 595 mmHg 56%
    11:00 +21°C° 0 mm 2 m/S 595 mmHg 52%
    12:00 +21°C° 0 mm 2 m/S 595 mmHg 53%
    13:00 +21°C° 0 mm 3 m/S 594 mmHg 55%
    14:00 +21°C° 0 mm 3 m/S 594 mmHg 56%
    15:00 +20°C° 0.1 mm 2 m/S 593 mmHg 65%
    16:00 +18°C° 0.1 mm 2 m/S 593 mmHg 75%
    17:00 +16°C° 0.1 mm 1 m/S 592 mmHg 85%
    18:00 +16°C° 0 mm 1 m/S 593 mmHg 87%
    19:00 +15°C° 0 mm 1 m/S 593 mmHg 89%
    20:00 +15°C° 0 mm 1 m/S 593 mmHg 91%
    21:00 +15°C° 0 mm 1 m/S 593 mmHg 89%
    22:00 +14°C° 0 mm 1 m/S 593 mmHg 87%
    23:00 +13°C° 0 mm 0 m/S 592 mmHg 85%

    20 November, Mittwoch

    Zeit Temperatur Niederschläge Wind Luftdruck Luftfeuchtigkeit
    00:00 +14°C° 0 mm 1 m/S 592 mmHg 84%
    01:00 +14°C° 0 mm 1 m/S 592 mmHg 83%
    02:00 +14°C° 0 mm 1 m/S 592 mmHg 82%
    03:00 +14°C° 0 mm 1 m/S 592 mmHg 82%
    04:00 +14°C° 0 mm 1 m/S 592 mmHg 82%
    05:00 +14°C° 0 mm 1 m/S 592 mmHg 82%
    06:00 +15°C° 0 mm 1 m/S 593 mmHg 76%
    07:00 +18°C° 0 mm 1 m/S 594 mmHg 70%
    08:00 +20°C° 0 mm 1 m/S 595 mmHg 64%
    09:00 +21°C° 0 mm 1 m/S 596 mmHg 57%
    10:00 +23°C° 0 mm 1 m/S 596 mmHg 51%
    11:00 +25°C° 0 mm 1 m/S 596 mmHg 44%
    12:00 +25°C° 0 mm 1 m/S 596 mmHg 44%
    13:00 +25°C° 0 mm 2 m/S 595 mmHg 44%
    14:00 +25°C° 0 mm 2 m/S 594 mmHg 43%
    15:00 +23°C° 0.1 mm 2 m/S 594 mmHg 53%
    16:00 +20°C° 0.1 mm 2 m/S 593 mmHg 63%
    17:00 +19°C° 0.1 mm 1 m/S 593 mmHg 74%
    18:00 +19°C° 0 mm 1 m/S 593 mmHg 76%
    19:00 +18°C° 0 mm 1 m/S 593 mmHg 78%
    20:00 +16°C° 0 mm 1 m/S 593 mmHg 80%
    21:00 +16°C° 0 mm 1 m/S 593 mmHg 77%
    22:00 +16°C° 0 mm 1 m/S 593 mmHg 75%
    23:00 +16°C° 0 mm 1 m/S 593 mmHg 72%

    21 November, Donnerstag

    Zeit Temperatur Niederschläge Wind Luftdruck Luftfeuchtigkeit
    00:00 +16°C° 0 mm 1 m/S 593 mmHg 71%
    01:00 +16°C° 0 mm 1 m/S 593 mmHg 70%
    02:00 +15°C° 0 mm 1 m/S 592 mmHg 69%
    03:00 +15°C° 0 mm 1 m/S 592 mmHg 70%
    04:00 +15°C° 0 mm 1 m/S 593 mmHg 72%
    05:00 +15°C° 0 mm 1 m/S 593 mmHg 73%
    06:00 +16°C° 0 mm 1 m/S 594 mmHg 68%
    07:00 +19°C° 0 mm 1 m/S 595 mmHg 63%
    08:00 +21°C° 0 mm 1 m/S 596 mmHg 58%
    09:00 +22°C° 0 mm 1 m/S 596 mmHg 52%
    10:00 +24°C° 0 mm 1 m/S 596 mmHg 46%
    11:00 +25°C° 0 mm 1 m/S 597 mmHg 40%
    12:00 +25°C° 0 mm 1 m/S 596 mmHg 41%
    13:00 +25°C° 0 mm 2 m/S 595 mmHg 41%
    14:00 +25°C° 0 mm 2 m/S 595 mmHg 41%
    15:00 +23°C° 0 mm 2 m/S 594 mmHg 52%
    16:00 +21°C° 0 mm 2 m/S 594 mmHg 63%
    17:00 +19°C° 0 mm 2 m/S 593 mmHg 73%
    18:00 +19°C° 0 mm 1 m/S 593 mmHg 75%
    19:00 +19°C° 0 mm 1 m/S 593 mmHg 76%
    20:00 +18°C° 0 mm 1 m/S 593 mmHg 78%
    21:00 +18°C° 0 mm 1 m/S 593 mmHg 75%
    22:00 +16°C° 0 mm 1 m/S 593 mmHg 73%
    23:00 +16°C° 0 mm 1 m/S 593 mmHg 70%

    22 November, Freitag

    Zeit Temperatur Niederschläge Wind Luftdruck Luftfeuchtigkeit
    00:00 +16°C° 0 mm 1 m/S 593 mmHg 70%
    01:00 +15°C° 0 mm 1 m/S 592 mmHg 70%
    02:00 +15°C° 0 mm 1 m/S 592 mmHg 71%
    03:00 +15°C° 0 mm 1 m/S 592 mmHg 72%
    04:00 +15°C° 0 mm 1 m/S 592 mmHg 74%
    05:00 +15°C° 0 mm 1 m/S 592 mmHg 76%
    06:00 +16°C° 0 mm 1 m/S 593 mmHg 70%
    07:00 +19°C° 0 mm 1 m/S 594 mmHg 65%
    08:00 +21°C° 0 mm 1 m/S 595 mmHg 60%
    09:00 +22°C° 0 mm 1 m/S 595 mmHg 56%
    10:00 +23°C° 0 mm 2 m/S 596 mmHg 51%
    11:00 +25°C° 0 mm 2 m/S 596 mmHg 47%
    12:00 +25°C° 0.2 mm 2 m/S 595 mmHg 47%
    13:00 +25°C° 0.2 mm 2 m/S 594 mmHg 48%
    14:00 +25°C° 0.2 mm 3 m/S 594 mmHg 48%
    15:00 +23°C° 0.1 mm 2 m/S 593 mmHg 56%
    16:00 +20°C° 0.1 mm 2 m/S 593 mmHg 64%
    17:00 +19°C° 0.1 mm 2 m/S 592 mmHg 72%
    18:00 +19°C° 0.3 mm 1 m/S 592 mmHg 74%
    19:00 +18°C° 0.3 mm 1 m/S 593 mmHg 75%
    20:00 +18°C° 0.3 mm 1 m/S 593 mmHg 76%
    21:00 +16°C° 0 mm 1 m/S 593 mmHg 75%
    22:00 +16°C° 0 mm 1 m/S 593 mmHg 74%
    23:00 +16°C° 0 mm 1 m/S 593 mmHg 74%
    Mehr zeigen